FW0663 Weather Reports


Display with metric or nautical units.
time (UTC)temp
F
wind
direction
speed
MPH
gust
MPH
rain 1hr
in
rain 24hr
in
rain mn
in
humidity
%
barometer
mb
20260901224528 78 252 2.0 7.0 0.00 0.00 0.00 27 1005.6
20260901223027 79 346 1.0 12.0 0.00 0.00 0.00 25 1005.8
20260901221557 81 312 4.0 9.0 0.00 0.00 0.00 25 1005.9
20260901220037 80 215 3.0 7.0 0.00 0.00 0.00 27 1006.0
20260901214521 80 338 4.0 9.0 0.00 0.00 0.00 25 1006.2
20260901213023 80 5 2.0 7.0 0.00 0.00 0.00 24 1006.3
20260901211516 79 200 1.0 8.0 0.00 0.00 0.00 26 1006.5
20260901210014 78 272 1.0 10.0 0.00 0.00 0.00 28 1006.7
20260901204516 78 317 0.0 9.0 0.00 0.00 0.00 27 1006.9
20260901203009 77 121 2.0 19.0 0.00 0.00 0.00 28 1007.2
20260901201507 77 338 4.0 7.0 0.00 0.00 0.00 28 1007.5
20260901200021 77 17 3.0 8.0 0.00 0.00 0.00 28 1007.7
20260901194501 76 259 1.0 7.0 0.00 0.00 0.00 31 1007.9
20260901193058 75 331 3.0 9.0 0.00 0.00 0.00 30 1008.2
20260901191635 74 360 3.0 7.0 0.00 0.00 0.00 32 1008.4
20260901190100 73 257 0.0 3.0 0.00 0.00 0.00 34 1008.5
20260901184552 72 30 1.0 5.0 0.00 0.00 0.00 33 1008.6
20260901183053 72 279 0.0 5.0 0.00 0.00 0.00 35 1008.8
20260901181556 71 276 2.0 5.0 0.00 0.00 0.00 34 1008.9
20260901180043 70 100 1.0 3.0 0.00 0.00 0.00 41 1009.1
20260901174541 68 97 0.0 5.0 0.00 0.00 0.00 39 1009.1
20260901173036 67 99 1.0 3.0 0.00 0.00 0.00 42 1009.1
20260901171536 65 133 1.0 2.0 0.00 0.00 0.00 42 1009.3
20260901170028 63 24 0.0 4.0 0.00 0.00 0.00 43 1009.3
20260901164523 60 16 1.0 7.0 0.00 0.00 0.00 47 1009.3
20260901163020 59 82 1.0 5.0 0.00 0.00 0.00 49 1009.4
20260901161526 57 105 2.0 6.0 0.00 0.00 0.00 54 1009.7
20260901160017 56 84 2.0 5.0 0.00 0.00 0.00 59 1009.8
20260901154517 53 103 1.0 3.0 0.00 0.00 0.00 61 1010.1
20260901153022 50 144 0.0 0.0 0.00 0.00 0.00 62 1010.1
20260901151531 49 144 0.0 0.0 0.00 0.00 0.00 66 1010.0
20260901150021 49 147 0.0 0.0 0.00 0.00 0.00 63 1009.9
20260901144512 48 105 0.0 0.0 0.00 0.00 0.00 67 1009.8
20260901143011 48 116 0.0 1.0 0.00 0.00 0.00 68 1009.6
20260901141509 48 113 0.0 0.0 0.00 0.00 0.00 64 1009.4
20260901140008 48 127 0.0 2.0 0.00 0.00 0.00 64 1009.1
20260901134507 47 103 0.0 2.0 0.00 0.00 0.00 66 1009.1
20260901133007 47 123 0.0 2.0 0.00 0.00 0.00 66 1008.9
20260901131510 47 110 0.0 1.0 0.00 0.00 0.00 66 1008.9
20260901130005 47 98 0.0 2.0 0.00 0.00 0.00 65 1009.1
20260901124505 47 105 0.0 2.0 0.00 0.00 0.00 67 1009.1
20260901123005 48 115 1.0 3.0 0.00 0.00 0.00 66 1009.1
20260901121508 49 106 0.0 2.0 0.00 0.00 0.00 63 1009.2
20260901120007 48 109 0.0 1.0 0.00 0.00 0.00 63 1009.3
20260901114501 49 103 0.0 2.0 0.00 0.00 0.00 65 1009.1
20260901113003 49 108 1.0 2.0 0.00 0.00 0.00 65 1009.1
20260901111600 48 106 1.0 2.0 0.00 0.00 0.00 66 1009.2
20260901110100 47 105 0.0 3.0 0.00 0.00 0.00 69 1009.1
20260901104602 49 100 0.0 3.0 0.00 0.00 0.00 65 1009.1
20260901103055 50 112 0.0 2.0 0.00 0.00 0.00 62 1009.2
20260901101605 50 123 0.0 2.0 0.00 0.00 0.00 64 1009.1
20260901100058 49 107 0.0 2.0 0.00 0.00 0.00 68 1009.1
20260901094555 50 98 0.0 2.0 0.00 0.00 0.00 65 1009.2
20260901093054 50 84 0.0 3.0 0.00 0.00 0.00 63 1009.2
20260901091557 51 83 1.0 2.0 0.00 0.00 0.00 63 1009.2
20260901090051 50 104 1.0 2.0 0.00 0.00 0.00 64 1009.1
20260901084551 50 95 0.0 2.0 0.00 0.00 0.00 66 1009.1
20260901083047 51 108 0.0 2.0 0.00 0.00 0.00 66 1009.2
20260901081550 51 94 0.0 2.0 0.00 0.00 0.00 64 1009.1
20260901080137 51 94 1.0 3.0 0.00 0.00 0.00 65 1009.1
20260901074539 52 87 0.0 0.0 0.00 0.00 0.00 64 1008.9
20260901073035 54 102 0.0 1.0 0.00 0.00 0.00 59 1009.0
20260901071535 56 104 0.0 2.0 0.00 0.00 0.00 55 1009.0
20260901070034 60 126 0.0 0.0 0.00 0.00 0.00 45 1009.0
20260901064528 62 324 0.0 2.0 0.00 0.00 0.00 42 1009.0
20260901063045 63 321 1.0 3.0 0.00 0.00 0.00 39 1009.1
20260901061527 63 328 1.0 4.0 0.00 0.00 0.00 39 1009.2
20260901060027 63 289 2.0 3.0 0.00 0.00 0.00 40 1009.2
20260901054530 64 259 0.0 2.0 0.00 0.00 0.00 39 1009.1
20260901053032 65 273 0.0 2.0 0.00 0.00 0.00 37 1009.1
20260901051526 65 286 0.0 2.0 0.00 0.00 0.00 38 1008.9
20260901050026 66 355 0.0 2.0 0.00 0.00 0.00 38 1009.0
20260901044525 67 273 0.0 1.0 0.00 0.00 0.00 36 1009.0
20260901043032 67 338 0.0 1.0 0.00 0.00 0.00 36 1009.0
20260901041524 69 246 0.0 0.0 0.00 0.00 0.00 34 1008.7
20260901040024 70 184 0.0 2.0 0.00 0.00 0.00 33 1008.6
20260901034524 74 225 0.0 5.0 0.00 0.00 0.00 29 1008.3
20260901033023 74 292 1.0 6.0 0.00 0.00 0.00 28 1007.9
20260901031524 74 323 3.0 12.0 0.00 0.00 0.00 27 1007.8
20260901030022 74 321 3.0 10.0 0.00 0.00 0.00 27 1007.6
20260901024521 74 279 2.0 6.0 0.00 0.00 0.00 29 1007.2
20260901023020 75 240 1.0 3.0 0.00 0.00 0.00 31 1006.9
20260901021526 77 263 0.0 2.0 0.00 0.00 0.00 28 1006.8
20260901020020 79 275 0.0 2.0 0.00 0.00 0.00 27 1006.6
20260901014519 81 242 1.0 7.0 0.00 0.00 0.00 25 1006.6
20260901013019 82 338 3.0 10.0 0.00 0.00 0.00 19 1006.6
20260901011525 84 321 3.0 11.0 0.00 0.00 0.00 18 1006.6
20260901010017 85 331 5.0 13.0 0.00 0.00 0.00 18 1006.7
20260901004514 86 14 5.0 11.0 0.00 0.00 0.00 18 1006.9
20260901003012 86 308 4.0 9.0 0.00 0.00 0.00 18 1007.1
20260901001510 86 323 5.0 9.0 0.00 0.00 0.00 16 1007.1
20260901000013 87 311 5.0 8.0 0.00 0.00 0.00 16 1007.3
20260831234509 87 328 4.0 8.0 0.00 0.00 0.00 16 1007.6
20260831233004 87 23 4.0 9.0 0.00 0.00 0.00 16 1007.7
20260831231510 87 311 5.0 11.0 0.00 0.00 0.00 17 1008.0
20260831230003 87 270 5.0 11.0 0.00 0.00 0.00 17 1008.0